Powrót do katalogu

DELTA 1 DEB

AktywnySSO
NORAD 7133·DEBRIS·🇺🇸 United States

Wystrzelony Nov 6, 1973 z Vandenberg Space Force Base

Loading…

Następne Przeloty (najbliższe 24 godziny)

TLE

ŚwieżeSource: Space-Track

Epoka: Sep 14, 2026, 00:56 UTC

1 07133U 73086CX  26257.03943226  .00000126  00000-0  12354-2 0  9995
2 07133 101.6625 287.9612 0038528 155.3019 233.5231 12.41616259391371

Śledź DELTA 1 DEB w czasie rzeczywistym z AllMySat

Download on the App Store